Location: Vaughan
(31.9146°N, 97.1736°W)
Time: 21:20:29
(UTC+00:00)

Cosmos 2142 Rocket - Visible Passes

Search period start: 16 March 2026 00:00
Search period end: 26 March 2026 00:00
Orbit: 953 x 1003 km, 82.9° (Epoch: 16 March)

Date Brightness Start Highest point End Pass type
(mag) Time Alt. Az. Time Alt. Az. Time Alt. Az.
16 Mar 8.0 01:40:00 10° WNW 01:42:07 12° W 01:44:15 10° WSW visible
16 Mar 6.9 11:31:45 10° SE 11:36:41 26° E 11:41:42 10° NNE visible
17 Mar 5.6 11:56:31 10° SSE 12:02:27 51° E 12:08:31 10° NNE visible
18 Mar 7.9 10:43:17 10° E 10:43:56 10° E 10:44:35 10° ENE visible
19 Mar 7.9 01:11:54 10° NW 01:14:57 14° W 01:18:00 10° WSW visible
19 Mar 7.0 11:04:52 10° SE 11:09:29 22° E 11:14:11 10° NE visible
20 Mar 5.8 11:29:23 10° SSE 11:35:13 44° E 11:41:09 10° NNE visible
21 Mar 4.6 11:54:53 10° S 12:01:07 87° E 12:07:28 10° N visible
22 Mar 7.1 10:38:01 10° SE 10:42:18 19° E 10:46:36 10° NE visible
23 Mar 6.0 11:02:18 10° SSE 11:07:59 39° E 11:13:46 10° NNE visible
24 Mar 4.7 11:27:37 10° S 11:33:51 76° E 11:40:12 10° N visible
25 Mar 7.2 10:11:18 10° ESE 10:15:06 17° E 10:18:56 10° NE visible
25 Mar 4.6 11:53:46 10° SSW 11:59:53 56° W 12:06:07 10° N visible
